New Richmond, WI

4:38 AM CST on December 05, 2016 (GMT -0600)
New Richmond Municipal

Weather History for KRNH - August, 2013

Change the Weather History Date:

Friday, August 9, 2013

  Actual Average (KMSP) Record (KMSP)
Temperature  
Mean Temperature 64 °F 72 °F  
Max Temperature 74 °F 82 °F 95 °F (1947)
Min Temperature 53 °F 63 °F 46 °F (1972)
Degree Days  
Heating Degree Days 2 0  
Month to date heating degree days 0  
Since 1 June heating degree days 49  
Since 1 July heating degree days 5  
Cooling Degree Days 0 8  
Month to date cooling degree days 72  
Year to date cooling degree days 548  
Since 1 June cooling degree days 506  
Growing Degree Days 14 (Base 50)    
Moisture  
Dew Point 53 °F    
Average Humidity 69    
Maximum Humidity 100    
Minimum Humidity 36    
Precipitation  
Precipitation 0.00 in 0.14 in 3.34 in (1914)
Month to date precipitation 1.33  
Year to date precipitation 19.20  
Snow  
Snow 0.00 in 0.00 in 0.00 in ()
Month to date snowfall 0.0  
Since 1 June snowfall 0.0  
Since 1 July snowfall 0.0  
Snow Depth -    
Sea Level Pressure  
Sea Level Pressure 30.05 in    
Wind  
Wind Speed 4 mph (NW)    
Max Wind Speed 14 mph    
Max Gust Speed 21 mph    
Visibility 8 miles    
Events Fog    
T = Trace of Precipitation, MM = Missing Value Source: NWS Daily Summary

Daily Weather History Graph

Daily Weather History Graph

Search for Another Location

Airport or City:

Trip Planner

Search our weather history database for the weather conditions in past years. The results will help you decide how hot, cold, wet, or windy it might be!

Date:

Astronomy

Aug. 09, 2013 Rise Set
Actual Time 6:04 AM CDT 8:25 PM CDT
Civil Twilight 5:31 AM CDT 8:58 PM CDT
Nautical Twilight 4:51 AM CDT 9:38 PM CDT
Astronomical Twilight 4:05 AM CDT 10:24 PM CDT
Moon 9:02 AM CDT (8/9) 9:23 PM CDT (8/9)
Length of Visible Light 15h 26m
Length of Day
14h 20m
Waxing Crescent, 8% of the Moon is Illuminated
Aug 9
Waxing Crescent
Aug 14
First Quarter
Aug 20
Full
Aug 28
Last Quarter
Sep 5
New

Hourly Weather History & Observations

Time (CDT) Temp. Dew Point Humidity Pressure Visibility Wind Dir Wind Speed Gust Speed Precip Events Conditions
12:15 AM 61.0 °F 59.2 °F 94% 30.01 in 10.0 mi SSW 3.5 mph - N/A   Mostly Cloudy
12:35 AM 60.8 °F 59.2 °F 94% 30.01 in 10.0 mi SSW 4.6 mph - N/A   Mostly Cloudy
12:55 AM 60.1 °F 58.8 °F 96% 30.01 in 10.0 mi SSW 3.5 mph - N/A   Scattered Clouds
1:15 AM 59.2 °F 58.3 °F 97% 30.01 in 10.0 mi SSW 4.6 mph - N/A   Clear
1:35 AM 58.6 °F 57.7 °F 97% 30.01 in 10.0 mi Calm Calm - N/A   Clear
1:55 AM 57.6 °F 57.4 °F 99% 30.01 in 7.0 mi SSW 3.5 mph - N/A   Mostly Cloudy
2:15 AM 58.3 °F 57.9 °F 99% 30.01 in 10.0 mi Calm Calm - N/A   Overcast
2:35 AM 57.9 °F 57.9 °F 100% 30.01 in 7.0 mi Calm Calm - N/A   Scattered Clouds
2:55 AM 57.0 °F 57.0 °F 100% 30.01 in 7.0 mi SSW 3.5 mph - N/A   Clear
3:15 AM 56.8 °F 56.8 °F 100% 30.01 in 2.5 mi Calm Calm - N/A   Clear
3:35 AM 56.5 °F 56.5 °F 100% 30.01 in 5.0 mi Calm Calm - N/A   Clear
3:55 AM 56.5 °F 56.5 °F 100% 30.01 in 4.0 mi SW 3.5 mph - N/A   Clear
4:15 AM 57.0 °F 57.0 °F 100% 30.01 in 4.0 mi Calm Calm - N/A   Clear
4:35 AM 56.5 °F 56.5 °F 100% 30.01 in 3.0 mi WNW 3.5 mph - N/A   Clear
4:55 AM 55.4 °F 55.4 °F 100% 30.01 in 0.2 mi Calm Calm - N/A Fog Fog
5:15 AM 54.9 °F 54.9 °F 100% 30.01 in 0.2 mi Calm Calm - N/A Fog Fog
5:35 AM 56.5 °F 56.5 °F 100% 30.01 in 0.2 mi Calm Calm - N/A Fog Fog
5:55 AM 53.1 °F 53.1 °F 100% 30.01 in 0.2 mi Calm Calm - N/A Fog Fog
6:15 AM 54.1 °F 54.1 °F 100% 30.02 in 0.2 mi Calm Calm - N/A Fog Fog
6:35 AM 54.9 °F 54.9 °F 100% 30.02 in 0.2 mi Calm Calm - N/A Fog Fog
6:55 AM 53.4 °F 53.4 °F 100% 30.02 in 0.2 mi Calm Calm - N/A Fog Fog
7:15 AM 56.8 °F 56.8 °F 100% 30.03 in 2.5 mi Calm Calm - N/A   Clear
7:35 AM 58.3 °F 58.3 °F 100% 30.03 in 7.0 mi Calm Calm - N/A   Clear
7:55 AM 59.0 °F 59.0 °F 100% 30.04 in 10.0 mi Calm Calm - N/A   Clear
8:15 AM 60.3 °F 60.3 °F 100% 30.03 in 10.0 mi Calm Calm - N/A   Clear
8:35 AM 62.1 °F 57.6 °F 85% 30.04 in 10.0 mi Calm Calm - N/A   Clear
8:55 AM 64.6 °F 55.6 °F 73% 30.04 in 10.0 mi Calm Calm - N/A   Clear
9:15 AM 65.7 °F 56.5 °F 72% 30.05 in 10.0 mi NW 3.5 mph - N/A   Clear
9:35 AM 67.1 °F 55.8 °F 67% 30.05 in 10.0 mi West 3.5 mph - N/A   Clear
9:55 AM 68.5 °F 54.5 °F 61% 30.06 in 10.0 mi NW 6.9 mph - N/A   Scattered Clouds
10:15 AM 67.5 °F 53.8 °F 61% 30.06 in 10.0 mi WNW 4.6 mph - N/A   Mostly Cloudy
10:35 AM 69.8 °F 54.0 °F 57% 30.07 in 10.0 mi NW 5.8 mph - N/A   Scattered Clouds
10:55 AM 70.9 °F 50.4 °F 48% 30.06 in 10.0 mi WNW 11.5 mph 16.1 mph N/A   Scattered Clouds
11:15 AM 71.1 °F 49.8 °F 47% 30.06 in 10.0 mi NW 10.4 mph - N/A   Scattered Clouds
11:35 AM 70.9 °F 51.6 °F 50% 30.05 in 10.0 mi NW 10.4 mph 16.1 mph N/A   Scattered Clouds
11:55 AM 71.1 °F 50.2 °F 48% 30.04 in 10.0 mi WNW 10.4 mph 16.1 mph N/A   Scattered Clouds
12:15 PM 72.3 °F 50.5 °F 46% 30.04 in 10.0 mi WNW 10.4 mph 19.6 mph N/A   Clear
12:35 PM 72.1 °F 51.1 °F 47% 30.04 in 10.0 mi WNW 9.2 mph 16.1 mph N/A   Scattered Clouds
12:55 PM 73.4 °F 50.7 °F 45% 30.04 in 10.0 mi NW 10.4 mph 16.1 mph N/A   Scattered Clouds
1:15 PM 73.8 °F 48.7 °F 41% 30.04 in 10.0 mi WNW 13.8 mph 17.3 mph N/A   Scattered Clouds
1:35 PM 73.4 °F 48.9 °F 42% 30.04 in 10.0 mi NW 11.5 mph 19.6 mph N/A   Scattered Clouds
1:55 PM 73.4 °F 49.6 °F 43% 30.04 in 10.0 mi WNW 11.5 mph 18.4 mph N/A   Scattered Clouds
2:15 PM 72.3 °F 47.8 °F 42% 30.04 in 10.0 mi WNW 13.8 mph 18.4 mph N/A   Scattered Clouds
2:35 PM 73.4 °F 46.6 °F 38% 30.05 in 10.0 mi NW 8.1 mph 20.7 mph N/A   Scattered Clouds
2:55 PM 73.4 °F 46.0 °F 38% 30.05 in 10.0 mi WNW 11.5 mph 18.4 mph N/A   Scattered Clouds
3:15 PM 74.3 °F 46.2 °F 37% 30.05 in 10.0 mi NNW 10.4 mph 17.3 mph N/A   Scattered Clouds
3:35 PM 74.3 °F 45.7 °F 36% 30.05 in 10.0 mi WNW 10.4 mph 16.1 mph N/A   Mostly Cloudy
3:55 PM 71.8 °F 46.4 °F 40% 30.05 in 10.0 mi NW 8.1 mph - N/A   Scattered Clouds
4:15 PM 71.4 °F 46.4 °F 41% 30.06 in 10.0 mi NW 10.4 mph - N/A   Scattered Clouds
4:35 PM 71.4 °F 46.8 °F 41% 30.06 in 10.0 mi NW 11.5 mph 17.3 mph N/A   Scattered Clouds
4:55 PM 71.1 °F 46.8 °F 42% 30.06 in 10.0 mi NW 11.5 mph - N/A   Scattered Clouds
5:15 PM 72.1 °F 46.2 °F 40% 30.06 in 10.0 mi NW 9.2 mph - N/A   Scattered Clouds
5:35 PM 72.9 °F 47.5 °F 40% 30.06 in 10.0 mi NW 9.2 mph - N/A   Mostly Cloudy
5:55 PM 71.2 °F 47.3 °F 42% 30.07 in 10.0 mi NW 9.2 mph - N/A   Overcast
6:15 PM 70.2 °F 48.6 °F 46% 30.06 in 10.0 mi NW 6.9 mph - N/A   Overcast
6:35 PM 69.8 °F 49.5 °F 48% 30.07 in 10.0 mi NW 4.6 mph - N/A   Overcast
6:55 PM 69.1 °F 49.5 °F 50% 30.07 in 10.0 mi NW 5.8 mph - N/A   Overcast
7:15 PM 68.4 °F 50.5 °F 53% 30.07 in 10.0 mi NNW 4.6 mph - N/A   Overcast
7:35 PM 68.0 °F 49.5 °F 51% 30.08 in 10.0 mi NNW 5.8 mph - N/A   Overcast
7:55 PM 66.9 °F 50.7 °F 56% 30.09 in 10.0 mi NW 4.6 mph - N/A   Overcast
8:15 PM 66.4 °F 51.3 °F 58% 30.09 in 10.0 mi North 4.6 mph - N/A   Overcast
8:35 PM 65.7 °F 51.1 °F 59% 30.10 in 10.0 mi North 5.8 mph - N/A   Overcast
8:55 PM 65.1 °F 51.8 °F 62% 30.10 in 10.0 mi North 3.5 mph - N/A   Overcast
9:15 PM 64.9 °F 51.1 °F 61% 30.11 in 10.0 mi North 5.8 mph - N/A   Overcast
9:35 PM 64.4 °F 51.3 °F 62% 30.11 in 10.0 mi North 3.5 mph - N/A   Overcast
9:55 PM 63.3 °F 52.0 °F 66% 30.12 in 10.0 mi NNW 4.6 mph - N/A   Overcast
10:15 PM 63.5 °F 52.9 °F 68% 30.12 in 10.0 mi Calm Calm - N/A   Overcast
10:35 PM 62.8 °F 52.7 °F 70% 30.12 in 10.0 mi Calm Calm - N/A   Overcast
10:55 PM 62.6 °F 53.1 °F 71% 30.13 in 10.0 mi NNW 3.5 mph - N/A   Overcast
11:15 PM 62.2 °F 53.2 °F 72% 30.13 in 10.0 mi NNW 3.5 mph - N/A   Overcast
11:35 PM 61.7 °F 53.6 °F 75% 30.13 in 10.0 mi NNW 3.5 mph - N/A   Overcast
11:55 PM 61.7 °F 53.8 °F 75% 30.14 in 10.0 mi Calm Calm - N/A   Overcast